カタログに戻る

CZ-6A DEB

運用中SSO
NORAD 56266·DEBRIS·🇨🇳 China

打ち上げ Nov 11, 2022 から Taiyuan Satellite Launch Center

Loading…

次のパス (今後24時間)

TLE

最新Source: Space-Track

元期: Sep 14, 2026, 09:19 UTC

1 56266U 22151ACJ 26257.38865356 -.00000100  00000-0 -40681-4 0  9998
2 56266  98.9614 229.3493 0119147 193.4669 166.3304 13.93887582177458

AllMySatでCZ-6A DEBをリアルタイム追跡

Download on the App Store